Location: Igloolik
(69.3800°N, 81.8000°W)
Time: 18:39:31
(UTC-05:00)

Amateur Radio Satellites - All Passes

Search period start: 30 October 2014 18:09
Search period end: 31 October 2014 18:09
Location: Igloolik, 69.3800°N, 81.8000°W

Satellite Date Start Highest point End Downlink Frequencies (MHz)
Time Altitude Azimuth
UOSAT-12 30 Oct 18:20:58 18:25:30 45° 194° (SSW) 18:30:00 437.025 FM, 437.400 FM
Oscar 11 30 Oct 18:36:17 18:40:05 31° 40° (NE) 18:43:53 145.825 FM, Beacon 2401.500 USB
JAS-2 30 Oct 18:41:47 18:47:46 30° 282° (WNW) 18:54:16 435.800 - 435.900 CW/SSB, 435.910 FM
FUNcube-1 30 Oct 18:50:58 18:54:40 27° 36° (NE) 18:58:18 145.950 - 145.970 MHz USB
SO-67 30 Oct 19:03:39 19:06:47 31° 264° (W) 19:09:56 435.3500 MHz FM
KITSAT 1 30 Oct 19:07:36 19:14:55 40° 230° (SW) 19:22:14 435.175 FM
OPAL 30 Oct 19:10:47 19:15:50 83° 119° (ESE) 19:20:49 ?
SO-50 30 Oct 19:12:39 19:16:03 20° 228° (SW) 19:19:29 436.795 FM
Hamsat 30 Oct 19:13:03 19:15:14 14° 284° (WNW) 19:17:25 145.90 MHz
STRAND 1 30 Oct 19:26:28 19:31:29 47° 101° (E) 19:36:28 ?
HO-68 30 Oct 19:27:53 19:35:07 84° 241° (WSW) 19:42:24 435.675 MHz FM
RS-15 30 Oct 19:29:35 19:35:46 17° 92° (E) 19:41:58 29.354 - 29.394 USB, Beacon 29.352 USB
UKube-1 30 Oct 19:35:50 19:40:08 58° 55° (NE) 19:44:28 145.840 MHz, 145.915 MHz
ZACube-1 30 Oct 19:43:22 19:47:32 40° 48° (NE) 19:51:37 437.345 MHz
UOSAT-12 30 Oct 20:00:55 20:04:58 28° 217° (SW) 20:08:59 437.025 FM, 437.400 FM
Oscar 11 30 Oct 20:11:35 20:15:54 77° 63° (ENE) 20:20:15 145.825 FM, Beacon 2401.500 USB
FUNcube-1 30 Oct 20:26:09 20:30:33 62° 58° (ENE) 20:34:52 145.950 - 145.970 MHz USB
JAS-2 30 Oct 20:32:17 20:35:38 14° 309° (NW) 20:39:06 435.800 - 435.900 CW/SSB, 435.910 FM
AO-40 30 Oct 20:41:35 00:03:09 15° 181° (S) 03:15:42 Beacon 2401.320
Oscar 10/S400 30 Oct 20:46:49 21:11:18 16° 202° (SSW) 22:17:39 145.825 - 145.975 CW/USB, Beacon 145.810 USB
OPAL 30 Oct 20:49:49 20:54:34 44° 322° (NW) 20:59:16 ?
KITSAT 1 30 Oct 21:03:08 21:08:19 19° 256° (WSW) 21:13:29 435.175 FM
STRAND 1 30 Oct 21:05:50 21:10:59 68° 304° (NW) 21:16:07 ?
UKube-1 30 Oct 21:12:15 21:16:30 48° 257° (WSW) 21:20:47 145.840 MHz, 145.915 MHz
HO-68 30 Oct 21:17:06 21:23:46 39° 266° (W) 21:30:29 435.675 MHz FM
ZACube-1 30 Oct 21:19:21 21:23:50 74° 251° (WSW) 21:28:13 437.345 MHz
RS-15 30 Oct 21:35:04 21:44:38 38° 122° (ESE) 21:54:19 29.354 - 29.394 USB, Beacon 29.352 USB
UOSAT-12 30 Oct 21:41:51 21:43:52 13° 239° (WSW) 21:45:53 437.025 FM, 437.400 FM
Oscar 11 30 Oct 21:48:33 21:52:30 34° 265° (W) 21:56:29 145.825 FM, Beacon 2401.500 USB
FUNcube-1 30 Oct 22:02:53 22:07:10 44° 260° (W) 22:11:22 145.950 - 145.970 MHz USB
OPAL 30 Oct 22:28:29 22:32:43 28° 346° (NNW) 22:36:56 ?
STRAND 1 30 Oct 22:45:05 22:49:42 33° 327° (NNW) 22:54:17 ?
UKube-1 30 Oct 22:51:00 22:53:45 16° 280° (W) 22:56:30 145.840 MHz, 145.915 MHz
ZACube-1 30 Oct 22:57:18 23:00:56 24° 273° (W) 23:04:31 437.345 MHz
JAS-1B 30 Oct 22:59:24 23:00:08 10° 56° (NE) 23:00:53 435.800 - 435.900 CW/SSB
HO-68 30 Oct 23:09:19 23:13:44 17° 293° (WNW) 23:18:11 435.675 MHz FM
MaSat-1 30 Oct 23:12:05 23:14:45 21° 131° (SE) 23:17:13 437.345 MHz
Oscar 11 30 Oct 23:28:38 23:30:01 11° 288° (WNW) 23:31:25 145.825 FM, Beacon 2401.500 USB
FUNcube-1 30 Oct 23:42:07 23:44:39 15° 283° (WNW) 23:47:10 145.950 - 145.970 MHz USB
RS-15 30 Oct 23:44:37 23:55:14 61° 152° (SSE) 00:06:04 29.354 - 29.394 USB, Beacon 29.352 USB
OPAL 31 Oct 00:06:26 00:10:38 27° 10° (N) 00:14:48 ?
AO-Echo 31 Oct 00:06:39 00:08:05 11° 64° (ENE) 00:09:30 ?
Oscar 19 31 Oct 00:17:50 00:20:52 16° 74° (ENE) 00:23:53 437.125 CW, 437.150 USB
STRAND 1 31 Oct 00:23:50 00:27:52 24° 351° (N) 00:31:55 ?
MaSat-1 31 Oct 00:46:29 00:49:46 54° 152° (SSE) 00:52:42 437.345 MHz
JAS-1B 31 Oct 00:48:03 00:53:25 27° 83° (E) 00:59:30 435.800 - 435.900 CW/SSB
AO-27 31 Oct 00:52:35 00:55:29 15° 72° (ENE) 00:58:22 436.795 MHz FM
Oscar 16 31 Oct 01:04:28 01:08:42 25° 86° (E) 01:12:55 437.025 USB, Beacon 2401.1428
Gurwin Techsat 1B 31 Oct 01:04:43 01:07:03 13° 68° (ENE) 01:09:23 435.225 FM
TMSAT-1 31 Oct 01:11:43 01:13:38 12° 66° (ENE) 01:15:33 436.925 FM
Sapphire 31 Oct 01:34:46 01:35:56 11° 104° (ESE) 01:37:07 437.095 MHz 1200 baud AX-25 AFSK
Uribyol 2 31 Oct 01:36:19 01:40:28 23° 84° (E) 01:44:35 436.500 FM
AO-Echo 31 Oct 01:44:02 01:48:40 29° 88° (E) 01:53:18 ?
OPAL 31 Oct 01:44:02 01:48:43 40° 33° (NNE) 01:53:22 ?
ITAMSAT 1 31 Oct 01:44:06 01:48:22 24° 85° (E) 01:52:36 435.822 SSB
PCSat 31 Oct 01:54:29 01:57:14 14° 110° (ESE) 01:59:59 145.825 MHz
RS-15 31 Oct 01:56:00 02:06:50 71° 182° (S) 02:17:57 29.354 - 29.394 USB, Beacon 29.352 USB
AO-7 31 Oct 01:56:23 02:00:27 14° 58° (ENE) 02:04:30 29.400 - 29.500 MHz
Oscar 19 31 Oct 01:56:44 02:01:37 42° 98° (E) 02:06:29 437.125 CW, 437.150 USB
STRAND 1 31 Oct 02:01:45 02:05:54 25° 15° (NNE) 02:10:02 ?
JAS-2 31 Oct 02:04:09 02:04:21 10° 40° (NE) 02:04:34 435.800 - 435.900 CW/SSB, 435.910 FM
MaSat-1 31 Oct 02:21:54 02:25:08 89° 353° (N) 02:28:00 437.345 MHz
AO-27 31 Oct 02:31:34 02:36:31 39° 96° (E) 02:41:25 436.795 MHz FM
JAS-1B 31 Oct 02:39:02 02:45:19 64° 107° (ESE) 02:52:46 435.800 - 435.900 CW/SSB
Oscar 16 31 Oct 02:43:49 02:48:58 68° 109° (ESE) 02:54:06 437.025 USB, Beacon 2401.1428
Gurwin Techsat 1B 31 Oct 02:43:52 02:48:44 34° 92° (E) 02:53:34 435.225 FM
TMSAT-1 31 Oct 02:50:35 02:55:21 32° 90° (E) 03:00:05 436.925 FM
Sapphire 31 Oct 03:13:15 03:17:46 28° 128° (SE) 03:22:18 437.095 MHz 1200 baud AX-25 AFSK
Uribyol 2 31 Oct 03:15:44 03:20:58 62° 107° (ESE) 03:26:08 436.500 FM
OPAL 31 Oct 03:22:15 03:27:20 83° 56° (ENE) 03:32:22 ?
AO-Echo 31 Oct 03:22:51 03:28:12 77° 111° (ESE) 03:33:34 ?
ITAMSAT 1 31 Oct 03:23:35 03:28:50 66° 108° (ESE) 03:34:02 435.822 SSB
PCSat 31 Oct 03:34:28 03:39:17 33° 134° (SE) 03:44:06 145.825 MHz
Uosat F 31 Oct 03:35:20 03:38:55 19° 80° (E) 03:42:28 435.120 FM
Oscar 19 31 Oct 03:36:14 03:41:23 75° 301° (WNW) 03:46:30 437.125 CW, 437.150 USB
STRAND 1 31 Oct 03:39:25 03:44:10 39° 39° (NE) 03:48:57 ?
JAS-2 31 Oct 03:46:58 03:52:44 22° 68° (ENE) 03:58:35 435.800 - 435.900 CW/SSB, 435.910 FM
AO-7 31 Oct 03:49:07 03:56:26 32° 86° (E) 04:03:44 29.400 - 29.500 MHz
MaSat-1 31 Oct 03:57:29 04:00:33 76° 198° (SSW) 04:03:17 437.345 MHz
RS-15 31 Oct 04:07:46 04:18:21 58° 213° (SSW) 04:29:17 29.354 - 29.394 USB, Beacon 29.352 USB
AO-27 31 Oct 04:11:14 04:16:31 81° 300° (WNW) 04:21:47 436.795 MHz FM
Oscar 16 31 Oct 04:23:22 04:28:19 50° 312° (NW) 04:33:16 437.025 USB, Beacon 2401.1428
Gurwin Techsat 1B 31 Oct 04:23:58 04:29:21 89° 116° (ESE) 04:34:43 435.225 FM
JAS-1B 31 Oct 04:30:05 04:36:11 62° 311° (NW) 04:43:23 435.800 - 435.900 CW/SSB
TMSAT-1 31 Oct 04:30:37 04:36:00 84° 114° (ESE) 04:41:20 436.925 FM
Sapphire 31 Oct 04:55:08 05:00:25 53° 151° (SSE) 05:05:42 437.095 MHz 1200 baud AX-25 AFSK
Uribyol 2 31 Oct 04:55:24 05:00:31 55° 310° (NW) 05:05:36 436.500 FM
AO-Echo 31 Oct 05:01:48 05:06:51 47° 314° (NW) 05:11:56 ?
OPAL 31 Oct 05:02:00 05:06:43 38° 259° (W) 05:11:24 ?
ITAMSAT 1 31 Oct 05:03:15 05:08:22 53° 312° (NW) 05:13:26 435.822 SSB
Hamsat 31 Oct 05:05:05 05:08:04 18° 82° (E) 05:11:02 145.90 MHz
Uosat F 31 Oct 05:13:54 05:18:52 51° 103° (ESE) 05:23:49 435.120 FM
Oscar 19 31 Oct 05:15:42 05:20:19 35° 324° (NW) 05:24:56 437.125 CW, 437.150 USB
PCSat 31 Oct 05:16:44 05:22:05 59° 158° (SSE) 05:27:26 145.825 MHz
STRAND 1 31 Oct 05:17:53 05:23:04 85° 62° (ENE) 05:28:17 ?
JAS-2 31 Oct 05:32:18 05:39:42 47° 93° (E) 05:47:15 435.800 - 435.900 CW/SSB, 435.910 FM
MaSat-1 31 Oct 05:33:03 05:35:41 30° 221° (SW) 05:38:04 437.345 MHz
AO-7 31 Oct 05:42:28 05:50:48 68° 113° (ESE) 05:59:08 29.400 - 29.500 MHz
AO-27 31 Oct 05:50:52 05:55:42 38° 323° (NW) 06:00:30 436.795 MHz FM
Saudisat 1A 31 Oct 05:54:20 05:55:41 11° 121° (ESE) 05:57:01 436.775 MHz
Oscar 16 31 Oct 06:02:39 06:06:58 28° 336° (NNW) 06:11:15 437.025 USB, Beacon 2401.1428
Gurwin Techsat 1B 31 Oct 06:04:06 06:09:05 42° 319° (NW) 06:14:04 435.225 FM
TMSAT-1 31 Oct 06:10:43 06:15:44 44° 317° (NW) 06:20:45 436.925 FM
SO-67 31 Oct 06:12:54 06:14:33 13° 80° (E) 06:16:11 435.3500 MHz FM
RS-15 31 Oct 06:19:24 06:28:46 35° 243° (WSW) 06:38:26 29.354 - 29.394 USB, Beacon 29.352 USB
JAS-1B 31 Oct 06:20:45 06:26:14 36° 336° (NNW) 06:32:28 435.800 - 435.900 CW/SSB
Uribyol 2 31 Oct 06:34:51 06:39:20 30° 334° (NNW) 06:43:48 436.500 FM
Sapphire 31 Oct 06:38:09 06:43:34 70° 176° (S) 06:49:01 437.095 MHz 1200 baud AX-25 AFSK
HO-68 31 Oct 06:40:06 06:42:57 12° 58° (ENE) 06:45:47 435.675 MHz FM
AO-Echo 31 Oct 06:40:26 06:44:49 27° 337° (NNW) 06:49:13 ?
Hamsat 31 Oct 06:40:43 06:44:53 58° 105° (ESE) 06:49:04 145.90 MHz
ITAMSAT 1 31 Oct 06:42:42 06:47:10 29° 335° (NNW) 06:51:37 435.822 SSB
OPAL 31 Oct 06:44:31 06:47:03 14° 283° (WNW) 06:49:35 ?
Uosat F 31 Oct 06:52:51 06:57:53 63° 306° (NW) 07:02:53 435.120 FM
Oscar 19 31 Oct 06:54:41 06:58:41 24° 348° (NNW) 07:02:41 437.125 CW, 437.150 USB
STRAND 1 31 Oct 06:58:02 07:02:48 36° 265° (W) 07:07:36 ?
PCSat 31 Oct 06:59:52 07:05:18 71° 182° (S) 07:10:44 145.825 MHz
JAS-2 31 Oct 07:17:42 07:25:24 87° 297° (WNW) 07:33:19 435.800 - 435.900 CW/SSB, 435.910 FM
AO-27 31 Oct 07:30:04 07:34:16 25° 347° (NNW) 07:38:28 436.795 MHz FM
Saudisat 1A 31 Oct 07:30:21 07:34:01 26° 143° (SE) 07:37:42 436.775 MHz
AO-7 31 Oct 07:35:36 07:43:52 70° 319° (NW) 07:52:08 29.400 - 29.500 MHz
Oscar 16 31 Oct 07:41:16 07:45:11 23° 360° (N) 07:49:06 437.025 USB, Beacon 2401.1428
Gurwin Techsat 1B 31 Oct 07:43:50 07:48:10 26° 343° (NNW) 07:52:30 435.225 FM
SO-67 31 Oct 07:45:00 07:48:22 46° 102° (ESE) 07:51:44 435.3500 MHz FM
TMSAT-1 31 Oct 07:50:26 07:54:48 27° 341° (NNW) 07:59:10 436.925 FM
JAS-1B 31 Oct 08:10:40 08:15:45 31° 2° (N) 08:21:23 435.800 - 435.900 CW/SSB
Uribyol 2 31 Oct 08:13:38 08:17:42 24° 358° (N) 08:21:46 436.500 FM
Hamsat 31 Oct 08:16:50 08:20:52 46° 307° (NW) 08:24:55 145.90 MHz
AO-Echo 31 Oct 08:18:23 08:22:23 23° 1° (N) 08:26:27 ?
Sapphire 31 Oct 08:21:26 08:26:49 61° 201° (SSW) 08:32:11 437.095 MHz 1200 baud AX-25 AFSK
ITAMSAT 1 31 Oct 08:21:28 08:25:33 24° 359° (N) 08:29:37 435.822 SSB
HO-68 31 Oct 08:27:11 08:33:24 30° 85° (E) 08:39:35 435.675 MHz FM
Uosat F 31 Oct 08:31:42 08:36:08 31° 330° (NNW) 08:40:33 435.120 FM
RS-15 31 Oct 08:32:03 08:37:25 15° 272° (W) 08:42:52 29.354 - 29.394 USB, Beacon 29.352 USB
Oscar 19 31 Oct 08:32:50 08:36:50 24° 12° (NNE) 08:40:51 437.125 CW, 437.150 USB
STRAND 1 31 Oct 08:41:02 08:43:34 14° 289° (WNW) 08:46:06 ?
PCSat 31 Oct 08:43:10 08:48:28 55° 207° (SSW) 08:53:46 145.825 MHz
UKube-1 31 Oct 08:46:12 08:48:47 15° 79° (E) 08:51:21 145.840 MHz, 145.915 MHz
ZACube-1 31 Oct 08:55:20 08:56:41 11° 71° (ENE) 08:58:01 437.345 MHz
JAS-2 31 Oct 09:02:50 09:10:03 51° 322° (NW) 09:17:34 435.800 - 435.900 CW/SSB, 435.910 FM
AO-27 31 Oct 09:08:26 09:12:36 25° 11° (N) 09:16:46 436.795 MHz FM
Saudisat 1A 31 Oct 09:08:43 09:12:54 42° 166° (SSE) 09:17:06 436.775 MHz
SO-67 31 Oct 09:18:04 09:21:24 44° 303° (WNW) 09:24:44 435.3500 MHz FM
Oscar 16 31 Oct 09:19:07 09:23:24 28° 24° (NNE) 09:27:42 437.025 USB, Beacon 2401.1428
Oscar 11 31 Oct 09:21:01 09:24:30 23° 87° (E) 09:27:57 145.825 FM, Beacon 2401.500 USB
Gurwin Techsat 1B 31 Oct 09:22:47 09:26:57 24° 7° (N) 09:31:07 435.225 FM
AO-7 31 Oct 09:28:09 09:36:01 50° 346° (NNW) 09:43:55 29.400 - 29.500 MHz
TMSAT-1 31 Oct 09:29:24 09:33:32 24° 5° (N) 09:37:41 436.925 FM
FUNcube-1 31 Oct 09:37:21 09:40:23 19° 82° (E) 09:43:23 145.950 - 145.970 MHz USB
Uribyol 2 31 Oct 09:51:40 09:56:03 28° 22° (NNE) 10:00:25 436.500 FM
Hamsat 31 Oct 09:52:56 09:56:09 22° 330° (NNW) 09:59:23 145.90 MHz
KITSAT 1 31 Oct 09:53:45 09:58:41 18° 103° (ESE) 10:03:37 435.175 FM
AO-Echo 31 Oct 09:55:36 09:59:59 28° 25° (NNE) 10:04:27 ?
ITAMSAT 1 31 Oct 09:59:30 10:03:55 28° 23° (NNE) 10:08:20 435.822 SSB
JAS-1B 31 Oct 09:59:59 10:05:19 40° 30° (NNE) 10:11:12 435.800 - 435.900 CW/SSB
Sapphire 31 Oct 10:04:46 10:09:40 35° 225° (SW) 10:14:34 437.095 MHz 1200 baud AX-25 AFSK
Uosat F 31 Oct 10:09:58 10:13:53 23° 353° (N) 10:17:47 435.120 FM
Oscar 19 31 Oct 10:10:34 10:15:13 35° 36° (NE) 10:19:51 437.125 CW, 437.150 USB
HO-68 31 Oct 10:15:15 10:22:28 67° 110° (ESE) 10:29:39 435.675 MHz FM
UKube-1 31 Oct 10:21:50 10:26:05 45° 102° (ESE) 10:30:18 145.840 MHz, 145.915 MHz
PCSat 31 Oct 10:26:32 10:31:10 29° 231° (SW) 10:35:47 145.825 MHz
ZACube-1 31 Oct 10:30:28 10:34:26 34° 95° (E) 10:38:18 437.345 MHz
AO-27 31 Oct 10:46:24 10:51:08 36° 35° (NE) 10:55:54 436.795 MHz FM
JAS-2 31 Oct 10:47:23 10:53:59 36° 346° (NNW) 11:00:56 435.800 - 435.900 CW/SSB, 435.910 FM
Saudisat 1A 31 Oct 10:47:48 10:52:01 44° 190° (S) 10:56:14 436.775 MHz
SO-67 31 Oct 10:51:23 10:53:46 18° 325° (NW) 10:56:10 435.3500 MHz FM
Oscar 11 31 Oct 10:57:04 11:01:24 72° 109° (ESE) 11:05:44 145.825 FM, Beacon 2401.500 USB
Oscar 16 31 Oct 10:57:05 11:02:02 50° 48° (NE) 11:07:00 437.025 USB, Beacon 2401.1428
Gurwin Techsat 1B 31 Oct 11:01:09 11:05:51 33° 31° (NNE) 11:10:34 435.225 FM
TMSAT-1 31 Oct 11:07:44 11:12:22 31° 29° (NNE) 11:17:01 436.925 FM
FUNcube-1 31 Oct 11:13:25 11:17:42 58° 105° (ESE) 11:21:51 145.950 - 145.970 MHz USB
AO-7 31 Oct 11:19:59 11:27:49 49° 12° (NNE) 11:35:42 29.400 - 29.500 MHz
SO-50 31 Oct 11:21:08 11:23:26 14° 122° (ESE) 11:25:45 436.795 FM
Hamsat 31 Oct 11:28:33 11:30:59 15° 353° (N) 11:33:26 145.90 MHz
Uribyol 2 31 Oct 11:29:44 11:34:46 48° 46° (NE) 11:39:47 436.500 FM
AO-Echo 31 Oct 11:33:01 11:38:00 51° 49° (NE) 11:43:08 ?
ITAMSAT 1 31 Oct 11:37:37 11:42:41 50° 47° (NE) 11:47:45 435.822 SSB
KITSAT 1 31 Oct 11:44:46 11:52:00 38° 129° (SE) 11:59:15 435.175 FM
Uosat F 31 Oct 11:47:26 11:51:31 25° 17° (NNE) 11:55:36 435.120 FM
Sapphire 31 Oct 11:48:45 11:51:48 15° 248° (WSW) 11:54:50 437.095 MHz 1200 baud AX-25 AFSK
Oscar 19 31 Oct 11:49:02 11:54:10 76° 60° (ENE) 11:59:19 437.125 CW, 437.150 USB
JAS-1B 31 Oct 11:49:51 11:55:33 78° 57° (ENE) 12:01:51 435.800 - 435.900 CW/SSB
UKube-1 31 Oct 11:58:08 12:02:29 61° 304° (NW) 12:06:49 145.840 MHz, 145.915 MHz
HO-68 31 Oct 12:03:13 12:10:21 65° 315° (NW) 12:17:28 435.675 MHz FM
ZACube-1 31 Oct 12:06:55 12:11:15 75° 298° (WNW) 12:15:27 437.345 MHz
PCSat 31 Oct 12:11:14 12:13:03 12° 254° (WSW) 12:14:52 145.825 MHz
SO-67 31 Oct 12:24:48 12:25:41 11° 348° (NNW) 12:26:33 435.3500 MHz FM
AO-27 31 Oct 12:25:00 12:30:14 75° 58° (ENE) 12:35:30 436.795 MHz FM
Saudisat 1A 31 Oct 12:27:08 12:30:58 29° 213° (SSW) 12:34:47 436.775 MHz
JAS-2 31 Oct 12:31:11 12:37:38 36° 11° (NNE) 12:44:30 435.800 - 435.900 CW/SSB, 435.910 FM
Oscar 11 31 Oct 12:33:26 12:37:29 40° 312° (NW) 12:41:32 145.825 FM, Beacon 2401.500 USB
Oscar 16 31 Oct 12:36:14 12:41:23 69° 251° (WSW) 12:46:32 437.025 USB, Beacon 2401.1428
Gurwin Techsat 1B 31 Oct 12:40:00 12:45:17 65° 55° (NE) 12:50:34 435.225 FM
TMSAT-1 31 Oct 12:46:27 12:51:42 60° 53° (NE) 12:56:57 436.925 FM
FUNcube-1 31 Oct 12:49:58 12:54:07 47° 308° (NW) 12:58:10 145.950 - 145.970 MHz USB
SO-50 31 Oct 12:58:45 13:02:47 30° 145° (SE) 13:06:55 436.795 FM
Hamsat 31 Oct 13:03:02 13:05:42 17° 16° (NNE) 13:08:23 145.90 MHz
Uribyol 2 31 Oct 13:08:55 13:14:10 74° 249° (WSW) 13:19:27 436.500 FM
AO-Echo 31 Oct 13:11:37 13:16:46 68° 252° (WSW) 13:22:04 ?
AO-7 31 Oct 13:11:44 13:19:56 68° 39° (NE) 13:28:10 29.400 - 29.500 MHz
ITAMSAT 1 31 Oct 13:16:54 13:22:09 70° 250° (WSW) 13:27:25 435.822 SSB
Uosat F 31 Oct 13:24:44 13:29:27 41° 41° (NE) 13:34:12 435.120 FM
Oscar 19 31 Oct 13:29:05 13:33:57 41° 263° (W) 13:38:49 437.125 CW, 437.150 USB
UKube-1 31 Oct 13:34:27 13:38:10 27° 327° (NNW) 13:41:53 145.840 MHz, 145.915 MHz
KITSAT 1 31 Oct 13:38:29 13:46:25 62° 155° (SSE) 13:54:21 435.175 FM
JAS-1B 31 Oct 13:41:30 13:46:54 43° 264° (W) 13:52:47 435.800 - 435.900 CW/SSB
ZACube-1 31 Oct 13:43:30 13:47:15 30° 321° (NW) 13:50:56 437.345 MHz
UOSAT-12 31 Oct 13:43:49 13:47:14 20° 132° (SE) 13:50:39 437.025 FM, 437.400 FM
HO-68 31 Oct 13:50:43 13:57:23 42° 341° (NNW) 14:04:03 435.675 MHz FM
SO-67 31 Oct 13:56:39 13:57:24 11° 11° (N) 13:58:09 435.3500 MHz FM
AO-27 31 Oct 14:05:10 14:10:10 43° 261° (W) 14:15:11 436.795 MHz FM
Saudisat 1A 31 Oct 14:07:16 14:09:25 13° 235° (SW) 14:11:33 436.775 MHz
Oscar 11 31 Oct 14:09:41 14:12:55 21° 335° (NNW) 14:16:09 145.825 FM, Beacon 2401.500 USB
JAS-2 31 Oct 14:14:46 14:21:31 49° 37° (NE) 14:28:52 435.800 - 435.900 CW/SSB, 435.910 FM
Oscar 16 31 Oct 14:17:23 14:21:38 25° 274° (W) 14:25:54 437.025 USB, Beacon 2401.1428
Gurwin Techsat 1B 31 Oct 14:20:18 14:25:30 52° 258° (WSW) 14:30:44 435.225 FM
FUNcube-1 31 Oct 14:26:27 14:29:49 23° 331° (NNW) 14:33:08 145.950 - 145.970 MHz USB
TMSAT-1 31 Oct 14:26:34 14:31:48 56° 256° (WSW) 14:37:04 436.925 FM
Hamsat 31 Oct 14:37:06 14:40:41 28° 39° (NE) 14:44:17 145.90 MHz
SO-50 31 Oct 14:38:13 14:42:41 46° 169° (SSE) 14:47:17 436.795 FM
Uribyol 2 31 Oct 14:50:03 14:54:30 27° 272° (W) 14:58:58 436.500 FM
AO-Echo 31 Oct 14:52:13 14:56:28 25° 276° (W) 15:00:49 ?
ITAMSAT 1 31 Oct 14:58:10 15:02:33 26° 273° (W) 15:06:56 435.822 SSB
Uosat F 31 Oct 15:02:56 15:08:01 88° 243° (WSW) 15:13:08 435.120 FM
AO-7 31 Oct 15:04:37 15:12:55 71° 245° (WSW) 15:21:16 29.400 - 29.500 MHz
UKube-1 31 Oct 15:10:21 15:13:22 19° 350° (N) 15:16:23 145.840 MHz, 145.915 MHz
Oscar 19 31 Oct 15:11:46 15:14:43 15° 286° (WNW) 15:17:41 437.125 CW, 437.150 USB
ZACube-1 31 Oct 15:19:47 15:22:42 18° 344° (NNW) 15:25:34 437.345 MHz
UOSAT-12 31 Oct 15:22:06 15:26:28 37° 155° (SSE) 15:30:50 437.025 FM, 437.400 FM
SO-67 31 Oct 15:26:59 15:29:17 17° 33° (NNE) 15:31:35 435.3500 MHz FM
KITSAT 1 31 Oct 15:33:24 15:41:27 72° 182° (S) 15:49:29 435.175 FM
JAS-1B 31 Oct 15:36:10 15:39:38 16° 292° (WNW) 15:43:15 435.800 - 435.900 CW/SSB
HO-68 31 Oct 15:37:29 15:44:00 39° 7° (N) 15:50:31 435.675 MHz FM
Oscar 11 31 Oct 15:45:17 15:47:57 16° 358° (N) 15:50:37 145.825 FM, Beacon 2401.500 USB
AO-27 31 Oct 15:47:51 15:51:05 16° 285° (WNW) 15:54:20 436.795 MHz FM
JAS-2 31 Oct 15:59:10 16:06:09 87° 62° (ENE) 16:13:53 435.800 - 435.900 CW/SSB, 435.910 FM
FUNcube-1 31 Oct 16:02:24 16:05:05 16° 354° (N) 16:07:44 145.950 - 145.970 MHz USB
Gurwin Techsat 1B 31 Oct 16:02:55 16:06:43 20° 282° (WNW) 16:10:33 435.225 FM
TMSAT-1 31 Oct 16:08:53 16:12:53 21° 280° (W) 16:16:53 436.925 FM
Hamsat 31 Oct 16:12:03 16:16:14 71° 62° (ENE) 16:20:25 145.90 MHz
SO-50 31 Oct 16:18:17 16:22:48 45° 192° (SSW) 16:27:24 436.795 FM
Uosat F 31 Oct 16:42:54 16:47:27 32° 267° (W) 16:52:01 435.120 FM
UKube-1 31 Oct 16:45:18 16:48:24 19° 13° (NNE) 16:51:29 145.840 MHz, 145.915 MHz
ZACube-1 31 Oct 16:55:09 16:57:53 17° 8° (N) 17:00:34 437.345 MHz
OPAL 31 Oct 16:56:44 17:00:32 21° 88° (E) 17:04:18 ?
SO-67 31 Oct 16:58:20 17:01:37 41° 55° (NE) 17:04:54 435.3500 MHz FM
AO-7 31 Oct 16:59:48 17:07:11 34° 272° (W) 17:14:37 29.400 - 29.500 MHz
UOSAT-12 31 Oct 17:01:32 17:06:06 48° 179° (S) 17:10:40 437.025 FM, 437.400 FM
STRAND 1 31 Oct 17:14:40 17:16:47 12° 69° (ENE) 17:18:53 ?
Oscar 11 31 Oct 17:19:51 17:22:57 20° 21° (NNE) 17:26:03 145.825 FM, Beacon 2401.500 USB
HO-68 31 Oct 17:23:53 17:30:46 51° 32° (NNE) 17:37:40 435.675 MHz FM
KITSAT 1 31 Oct 17:28:32 17:36:25 58° 210° (SSW) 17:44:16 435.175 FM
FUNcube-1 31 Oct 17:37:16 17:40:15 18° 18° (NNE) 17:43:12 145.950 - 145.970 MHz USB
JAS-2 31 Oct 17:45:18 17:51:55 46° 268° (W) 17:59:14 435.800 - 435.900 CW/SSB, 435.910 FM
Hamsat 31 Oct 17:48:40 17:52:32 35° 264° (W) 17:56:26 145.90 MHz
SO-50 31 Oct 17:58:36 18:02:42 29° 215° (SW) 18:06:53 436.795 FM
